Daggett-Barstow, CA

7:13 AM PDT on October 23, 2017 (GMT -0700)
Barstow-Daggett

Weather History for KDAG - March, 2013

Change the Weather History Date:

Thursday, March 7, 2013

  Actual Average Record
Temperature  
Mean Temperature 50 °F 57 °F  
Max Temperature 55 °F 70 °F 87 °F (1972)
Min Temperature 46 °F 44 °F 31 °F (1955)
Degree Days  
Heating Degree Days 14    
Cooling Degree Days 0    
Moisture  
Dew Point 36 °F    
Average Humidity 58    
Maximum Humidity 73    
Minimum Humidity 45    
Precipitation  
Precipitation 0.00 in 0.02 in 0.34 in (2001)
Month to date precipitation 0.16  
Year to date precipitation 1.42  
Sea Level Pressure  
Sea Level Pressure 29.87 in    
Wind  
Wind Speed 11 mph (WNW)    
Max Wind Speed 18 mph    
Max Gust Speed -    
Visibility 10 miles    
Events      
T = Trace of Precipitation, MM = Missing Value Source: NWS Daily Summary

Daily Weather History Graph

Daily Weather History Graph

Search for Another Location

Airport or City:

Trip Planner

Search our weather history database for the weather conditions in past years. The results will help you decide how hot, cold, wet, or windy it might be!

Date:

Astronomy

Mar. 07, 2013 Rise Set
Actual Time 6:08 AM PST 5:48 PM PST
Civil Twilight 5:42 AM PST 6:13 PM PST
Nautical Twilight 5:13 AM PST 6:42 PM PST
Astronomical Twilight 4:44 AM PST 7:12 PM PST
Moon 3:03 AM PST (3/7) 1:49 PM PST (3/7)
Length of Visible Light 12h 30m
Length of Day
11h 40m
Waning Crescent, 19% of the Moon is Illuminated
Mar 7
Waning Crescent
Mar 11
New
Mar 19
First Quarter
Mar 27
Full
Apr 2
Last Quarter

Hourly Weather History & Observations

Time (PST) Temp. Windchill Dew Point Humidity Pressure Visibility Wind Dir Wind Speed Gust Speed Precip Events Conditions
12:50 AM 50.0 °F - 37.0 °F 61% 29.90 in 10.0 mi West 15.0 mph - N/A   Clear
1:50 AM 48.0 °F - 37.0 °F 66% 29.88 in 10.0 mi West 18.4 mph - N/A   Clear
2:50 AM 46.9 °F - 37.9 °F 71% 29.88 in 10.0 mi West 17.3 mph - N/A   Clear
3:50 AM 46.0 °F 39.3 °F 37.9 °F 73% 29.88 in 10.0 mi West 16.1 mph - N/A   Clear
4:50 AM 46.0 °F 39.0 °F 37.9 °F 73% 29.89 in 10.0 mi WNW 17.3 mph - N/A   Clear
6:50 AM 46.9 °F - 37.9 °F 71% 29.92 in 10.0 mi West 4.6 mph - N/A   Partly Cloudy
7:50 AM 48.9 °F - 37.9 °F 66% 29.93 in 10.0 mi WNW 4.6 mph - N/A   Partly Cloudy
8:50 AM 48.9 °F - 37.0 °F 64% 29.93 in 10.0 mi NW 3.5 mph - N/A   Mostly Cloudy
8:56 AM 50.0 °F - 37.4 °F 62% 29.95 in 10.0 mi Calm Calm - N/A   Scattered Clouds
9:50 AM 51.1 °F - 37.0 °F 59% 29.92 in 10.0 mi West 4.6 mph - N/A   Clear
10:50 AM 53.1 °F - 37.0 °F 55% 29.93 in 10.0 mi Calm Calm - N/A   Clear
11:50 AM 53.1 °F - 37.9 °F 57% 29.91 in 10.0 mi East 8.1 mph - N/A   Clear
12:50 PM 54.0 °F - 37.9 °F 55% 29.89 in 10.0 mi East 6.9 mph - N/A   Partly Cloudy
1:50 PM 55.0 °F - 37.0 °F 51% 29.86 in 10.0 mi East 9.2 mph - N/A   Overcast
2:50 PM 55.9 °F - 36.0 °F 47% 29.85 in 10.0 mi East 8.1 mph - N/A   Mostly Cloudy
3:50 PM 55.9 °F - 35.1 °F 45% 29.85 in 10.0 mi ENE 6.9 mph - N/A   Overcast
4:50 PM 55.9 °F - 36.0 °F 47% 29.84 in 10.0 mi ENE 4.6 mph - N/A   Scattered Clouds
5:50 PM 55.9 °F - 36.0 °F 47% 29.83 in 10.0 mi Calm Calm - N/A   Mostly Cloudy
6:50 PM 54.0 °F - 34.0 °F 47% 29.84 in 10.0 mi SSW 8.1 mph - N/A   Partly Cloudy
7:50 PM 54.0 °F - 33.1 °F 45% 29.83 in 10.0 mi SSW 11.5 mph - N/A   Overcast
8:50 PM 50.0 °F - 35.1 °F 57% 29.83 in 10.0 mi NW 10.4 mph - N/A   Clear
9:50 PM 48.0 °F - 35.1 °F 61% 29.83 in 10.0 mi WNW 12.7 mph - N/A   Clear
10:50 PM 46.9 °F - 34.0 °F 61% 29.81 in 10.0 mi WNW 13.8 mph - N/A   Clear
11:50 PM 46.0 °F 41.4 °F 33.1 °F 61% 29.81 in 10.0 mi West 9.2 mph - N/A   Clear